Location: Newark
(44.3248°N, 23.7839°E)
Time: 00:02:34
(UTC+00:00)

PCSat - Pass Details

Date: 22 April 2024
Orbit: 783 x 792 km, 67.1° (Epoch: 21 May)

Event Time Altitude Azimuth Distance (km) Brightness Sun altitude
Rises 02:41:54 0° 326° (NW) 3,299 12.7 -8.6°
Reaches altitude 10° 02:44:20 10° 323° (NW) 2,366 11.9 -8.2°
Maximum altitude 02:49:42 65° 243° (WSW) 870 9.6 -7.4°
Drops below altitude 10° 02:55:02 10° 162° (SSE) 2,350 12.0 -6.5°
Sets 02:57:27 0° 160° (SSE) 3,274 12.7 -6.1°
